| time (UTC) | temp F | wind direction | speed MPH | gust MPH | rain 1hr in | rain 24hr in | rain mn in | humidity % | barometer mb |
| 20260502224047 | 63 | 88 | 0.0 | 0.0 | 0.00 | 0.00 | 0.00 | 85 | 1017.1 |
| 20260502223549 | 63 | 95 | 0.0 | 0.0 | 0.00 | 0.00 | 0.00 | 85 | 1017.1 |
| 20260502223046 | 63 | 95 | 0.0 | 0.0 | 0.00 | 0.00 | 0.00 | 85 | 1017.1 |
| 20260502222546 | 63 | 95 | 0.0 | 0.0 | 0.00 | 0.00 | 0.00 | 85 | 1017.1 |
| 20260502222045 | 63 | 95 | 0.0 | 0.0 | 0.00 | 0.00 | 0.00 | 85 | 1017.3 |
| 20260502221551 | 63 | 126 | 0.0 | 0.0 | 0.00 | 0.00 | 0.00 | 85 | 1017.3 |
| 20260502221044 | 63 | 126 | 0.0 | 0.0 | 0.00 | 0.00 | 0.00 | 85 | 1017.3 |
| 20260502220544 | 63 | 126 | 0.0 | 0.0 | 0.00 | 0.00 | 0.00 | 85 | 1017.3 |
| 20260502220049 | 63 | 126 | 0.0 | 0.0 | 0.00 | 0.00 | 0.00 | 85 | 1017.3 |
| 20260502215542 | 63 | 126 | 0.0 | 0.0 | 0.00 | 0.00 | 0.00 | 85 | 1017.5 |
| 20260502215043 | 63 | 126 | 0.0 | 0.0 | 0.00 | 0.00 | 0.00 | 85 | 1017.7 |
| 20260502214546 | 63 | 126 | 0.0 | 0.0 | 0.00 | 0.00 | 0.00 | 85 | 1017.7 |
| 20260502214042 | 63 | 126 | 0.0 | 0.0 | 0.00 | 0.00 | 0.00 | 85 | 1017.7 |
| 20260502213541 | 63 | 126 | 0.0 | 0.0 | 0.00 | 0.00 | 0.00 | 85 | 1017.6 |
| 20260502213041 | 63 | 126 | 0.0 | 0.0 | 0.00 | 0.00 | 0.00 | 85 | 1017.6 |
| 20260502212546 | 63 | 126 | 0.0 | 0.0 | 0.00 | 0.00 | 0.00 | 85 | 1017.5 |
| 20260502212041 | 63 | 126 | 0.0 | 0.0 | 0.00 | 0.00 | 0.00 | 85 | 1017.3 |
| 20260502211542 | 63 | 126 | 0.0 | 0.0 | 0.00 | 0.00 | 0.00 | 85 | 1017.3 |
| 20260502211040 | 63 | 126 | 0.0 | 0.0 | 0.00 | 0.00 | 0.00 | 85 | 1017.4 |
| 20260502210540 | 63 | 126 | 0.0 | 1.0 | 0.00 | 0.00 | 0.00 | 85 | 1017.3 |
| 20260502210041 | 63 | 126 | 0.0 | 3.0 | 0.00 | 0.00 | 0.00 | 85 | 1017.4 |
| 20260502205546 | 63 | 126 | 0.0 | 3.0 | 0.00 | 0.00 | 0.00 | 85 | 1017.5 |
| 20260502205040 | 63 | 126 | 0.0 | 3.0 | 0.00 | 0.00 | 0.00 | 85 | 1017.4 |
| 20260502204545 | 63 | 126 | 1.0 | 4.0 | 0.00 | 0.00 | 0.00 | 85 | 1017.4 |
| 20260502204140 | 63 | 126 | 2.0 | 4.0 | 0.00 | 0.00 | 0.00 | 85 | 1017.3 |
| 20260502203538 | 64 | 127 | 0.0 | 3.0 | 0.00 | 0.00 | 0.00 | 84 | 1017.2 |
| 20260502203043 | 64 | 127 | 0.0 | 0.0 | 0.00 | 0.00 | 0.00 | 84 | 1017.1 |
| 20260502202539 | 64 | 127 | 0.0 | 1.0 | 0.00 | 0.00 | 0.00 | 84 | 1017.0 |
| 20260502202038 | 64 | 127 | 0.0 | 1.0 | 0.00 | 0.00 | 0.00 | 84 | 1016.9 |
| 20260502201538 | 64 | 127 | 0.0 | 0.0 | 0.00 | 0.00 | 0.00 | 84 | 1016.9 |
| 20260502201039 | 64 | 127 | 0.0 | 1.0 | 0.00 | 0.00 | 0.00 | 84 | 1016.8 |
| 20260502200538 | 64 | 127 | 0.0 | 1.0 | 0.00 | 0.00 | 0.00 | 84 | 1016.7 |
| 20260502200039 | 64 | 127 | 0.0 | 1.0 | 0.00 | 0.00 | 0.00 | 84 | 1016.6 |
| 20260502195539 | 64 | 127 | 0.0 | 1.0 | 0.00 | 0.00 | 0.00 | 84 | 1016.7 |
| 20260502195037 | 64 | 127 | 0.0 | 0.0 | 0.00 | 0.00 | 0.00 | 84 | 1016.6 |
| 20260502194540 | 64 | 127 | 0.0 | 0.0 | 0.00 | 0.00 | 0.00 | 84 | 1016.5 |
| 20260502194038 | 64 | 127 | 0.0 | 0.0 | 0.00 | 0.00 | 0.00 | 84 | 1016.5 |
| 20260502193536 | 64 | 127 | 0.0 | 0.0 | 0.00 | 0.00 | 0.00 | 84 | 1016.5 |
| 20260502193043 | 64 | 127 | 0.0 | 1.0 | 0.00 | 0.00 | 0.00 | 84 | 1016.4 |
| 20260502192536 | 64 | 127 | 0.0 | 3.0 | 0.00 | 0.00 | 0.00 | 84 | 1016.4 |
| 20260502192038 | 64 | 127 | 1.0 | 3.0 | 0.00 | 0.00 | 0.00 | 83 | 1016.4 |
| 20260502191542 | 64 | 127 | 0.0 | 2.0 | 0.00 | 0.00 | 0.00 | 83 | 1016.4 |
| 20260502191036 | 64 | 127 | 0.0 | 2.0 | 0.00 | 0.00 | 0.00 | 83 | 1016.4 |
| 20260502190536 | 64 | 127 | 0.0 | 1.0 | 0.00 | 0.00 | 0.00 | 83 | 1016.4 |
| 20260502190037 | 64 | 127 | 0.0 | 2.0 | 0.00 | 0.00 | 0.00 | 83 | 1016.3 |
| 20260502185535 | 64 | 127 | 0.0 | 3.0 | 0.00 | 0.00 | 0.00 | 83 | 1016.4 |
| 20260502185035 | 64 | 127 | 1.0 | 3.0 | 0.00 | 0.00 | 0.00 | 83 | 1016.4 |
| 20260502184536 | 64 | 127 | 1.0 | 2.0 | 0.00 | 0.00 | 0.00 | 83 | 1016.4 |
| 20260502184035 | 64 | 127 | 0.0 | 3.0 | 0.00 | 0.00 | 0.00 | 82 | 1016.3 |
| 20260502183539 | 64 | 127 | 0.0 | 3.0 | 0.00 | 0.00 | 0.00 | 82 | 1016.4 |
| 20260502183035 | 64 | 127 | 1.0 | 2.0 | 0.00 | 0.00 | 0.00 | 82 | 1016.3 |
| 20260502182538 | 64 | 127 | 1.0 | 3.0 | 0.00 | 0.00 | 0.00 | 82 | 1016.5 |
| 20260502182034 | 64 | 127 | 1.0 | 3.0 | 0.00 | 0.00 | 0.00 | 82 | 1016.4 |
| 20260502181534 | 64 | 127 | 1.0 | 3.0 | 0.00 | 0.00 | 0.00 | 82 | 1016.4 |
| 20260502181035 | 64 | 127 | 1.0 | 3.0 | 0.00 | 0.00 | 0.00 | 82 | 1016.4 |
| 20260502180535 | 64 | 127 | 1.0 | 4.0 | 0.00 | 0.00 | 0.00 | 81 | 1016.4 |
| 20260502164029 | 65 | 120 | 3.0 | 6.0 | 0.00 | 0.00 | 0.00 | 80 | 1016.6 |
| 20260502163528 | 66 | 121 | 2.0 | 6.0 | 0.00 | 0.00 | 0.00 | 80 | 1016.6 |
| 20260502163036 | 66 | 124 | 3.0 | 6.0 | 0.00 | 0.00 | 0.00 | 79 | 1016.6 |
| 20260502162529 | 66 | 126 | 3.0 | 6.0 | 0.00 | 0.00 | 0.00 | 79 | 1016.7 |
| 20260502162028 | 66 | 111 | 3.0 | 6.0 | 0.00 | 0.00 | 0.00 | 79 | 1016.8 |
| 20260502161541 | 66 | 108 | 2.0 | 6.0 | 0.00 | 0.00 | 0.00 | 79 | 1016.8 |
| 20260502161035 | 66 | 146 | 1.0 | 8.0 | 0.00 | 0.00 | 0.00 | 80 | 1016.9 |
| 20260502160527 | 66 | 109 | 3.0 | 8.0 | 0.00 | 0.00 | 0.00 | 80 | 1016.8 |
| 20260502152025 | 66 | 132 | 3.0 | 5.0 | 0.00 | 0.00 | 0.00 | 80 | 1016.8 |
| 20260502151525 | 66 | 121 | 3.0 | 9.0 | 0.00 | 0.00 | 0.00 | 80 | 1017.2 |
| 20260502151025 | 66 | 96 | 5.0 | 10.0 | 0.00 | 0.00 | 0.00 | 80 | 1017.1 |
| 20260502150524 | 66 | 113 | 4.0 | 9.0 | 0.00 | 0.00 | 0.00 | 80 | 1017.2 |
| 20260502130512 | 65 | 136 | 3.0 | 8.0 | 0.00 | 0.00 | 0.00 | 85 | 1018.6 |
| 20260502123514 | 64 | 134 | 3.0 | 8.0 | 0.00 | 0.00 | 0.00 | 85 | 1018.8 |
| 20260502123012 | 64 | 127 | 4.0 | 9.0 | 0.00 | 0.00 | 0.00 | 85 | 1018.9 |
| 20260502122510 | 65 | 126 | 5.0 | 9.0 | 0.00 | 0.00 | 0.00 | 85 | 1018.7 |
| 20260502122017 | 64 | 98 | 2.0 | 9.0 | 0.00 | 0.00 | 0.00 | 84 | 1018.8 |
| 20260502121510 | 64 | 113 | 4.0 | 9.0 | 0.00 | 0.00 | 0.00 | 84 | 1018.9 |
| 20260502121010 | 65 | 108 | 5.0 | 9.0 | 0.00 | 0.00 | 0.00 | 85 | 1018.9 |
| 20260502120511 | 64 | 68 | 4.0 | 11.0 | 0.00 | 0.00 | 0.00 | 85 | 1018.9 |
| 20260502115515 | 65 | 117 | 7.0 | 11.0 | 0.00 | 0.00 | 0.00 | 84 | 1019.0 |
| 20260502115015 | 65 | 165 | 7.0 | 11.0 | 0.00 | 0.00 | 0.00 | 84 | 1019.1 |
| 20260502114509 | 65 | 114 | 5.0 | 11.0 | 0.00 | 0.00 | 0.00 | 84 | 1019.1 |
| 20260502114010 | 65 | 137 | 5.0 | 11.0 | 0.00 | 0.00 | 0.00 | 83 | 1019.2 |
| 20260502113509 | 65 | 122 | 6.0 | 11.0 | 0.00 | 0.00 | 0.00 | 83 | 1019.1 |
| 20260502113008 | 65 | 152 | 5.0 | 13.0 | 0.00 | 0.00 | 0.00 | 83 | 1019.2 |
| 20260502112509 | 65 | 117 | 6.0 | 16.0 | 0.00 | 0.00 | 0.00 | 82 | 1019.2 |
| 20260502112010 | 66 | 129 | 7.0 | 16.0 | 0.00 | 0.00 | 0.00 | 81 | 1019.2 |
| 20260502111509 | 66 | 132 | 6.0 | 13.0 | 0.00 | 0.00 | 0.00 | 81 | 1019.2 |
| 20260502111008 | 66 | 112 | 7.0 | 14.0 | 0.00 | 0.00 | 0.00 | 81 | 1019.4 |
| 20260502110508 | 66 | 122 | 5.0 | 15.0 | 0.00 | 0.00 | 0.00 | 81 | 1019.3 |
| 20260502110008 | 66 | 155 | 5.0 | 15.0 | 0.00 | 0.00 | 0.00 | 82 | 1019.4 |
| 20260502105506 | 66 | 136 | 6.0 | 14.0 | 0.00 | 0.00 | 0.00 | 82 | 1019.3 |
| 20260502105006 | 66 | 116 | 7.0 | 14.0 | 0.00 | 0.00 | 0.00 | 82 | 1019.5 |
| 20260502104505 | 66 | 101 | 8.0 | 14.0 | 0.00 | 0.00 | 0.00 | 81 | 1019.4 |
| 20260502104005 | 66 | 181 | 7.0 | 14.0 | 0.00 | 0.00 | 0.00 | 81 | 1019.4 |
| 20260502103504 | 66 | 129 | 5.0 | 13.0 | 0.00 | 0.00 | 0.00 | 81 | 1019.4 |
| 20260502103010 | 66 | 121 | 6.0 | 13.0 | 0.00 | 0.00 | 0.00 | 81 | 1019.4 |
| 20260502102503 | 66 | 155 | 7.0 | 14.0 | 0.00 | 0.00 | 0.00 | 81 | 1019.4 |
| 20260502102003 | 66 | 111 | 10.0 | 15.0 | 0.00 | 0.00 | 0.00 | 81 | 1019.5 |
| 20260502101501 | 66 | 152 | 6.0 | 14.0 | 0.00 | 0.00 | 0.00 | 82 | 1019.4 |
| 20260502101000 | 66 | 123 | 10.0 | 14.0 | 0.00 | 0.00 | 0.00 | 81 | 1019.6 |
| 20260502100501 | 66 | 146 | 6.0 | 16.0 | 0.00 | 0.00 | 0.00 | 81 | 1019.5 |
| 20260502091053 | 66 | 142 | 4.0 | 13.0 | 0.00 | 0.00 | 0.00 | 80 | 1019.2 |
| 20260502090554 | 65 | 122 | 6.0 | 10.0 | 0.00 | 0.00 | 0.00 | 80 | 1019.1 |
| 20260502071038 | 63 | 142 | 0.0 | 3.0 | 0.00 | 0.00 | 0.00 | 87 | 1019.0 |
| 20260502070541 | 63 | 144 | 0.0 | 3.0 | 0.00 | 0.00 | 0.00 | 88 | 1018.9 |
| 20260502070038 | 63 | 144 | 0.0 | 3.0 | 0.00 | 0.00 | 0.00 | 88 | 1018.9 |
| 20260502065536 | 63 | 143 | 0.0 | 3.0 | 0.00 | 0.00 | 0.00 | 88 | 1018.9 |
| 20260502065034 | 62 | 143 | 1.0 | 4.0 | 0.00 | 0.00 | 0.00 | 89 | 1019.0 |
| 20260502064538 | 62 | 124 | 1.0 | 4.0 | 0.00 | 0.00 | 0.00 | 89 | 1019.0 |
| 20260502064034 | 62 | 145 | 2.0 | 3.0 | 0.00 | 0.00 | 0.00 | 89 | 1019.0 |
| 20260502063532 | 62 | 165 | 0.0 | 3.0 | 0.00 | 0.00 | 0.00 | 89 | 1019.0 |
| 20260502063039 | 62 | 165 | 1.0 | 3.0 | 0.00 | 0.00 | 0.00 | 89 | 1019.1 |
| 20260502062528 | 62 | 165 | 0.0 | 2.0 | 0.00 | 0.00 | 0.00 | 89 | 1019.1 |
| 20260502062026 | 62 | 165 | 0.0 | 1.0 | 0.00 | 0.00 | 0.00 | 89 | 1019.1 |
| 20260502061526 | 62 | 165 | 0.0 | 1.0 | 0.00 | 0.00 | 0.00 | 89 | 1019.1 |
| 20260502061026 | 62 | 165 | 0.0 | 1.0 | 0.00 | 0.00 | 0.00 | 89 | 1019.2 |
| 20260502060526 | 62 | 165 | 0.0 | 3.0 | 0.00 | 0.00 | 0.00 | 89 | 1019.1 |
| 20260502060026 | 62 | 165 | 0.0 | 3.0 | 0.00 | 0.00 | 0.00 | 89 | 1018.9 |
| 20260502055525 | 62 | 165 | 1.0 | 5.0 | 0.00 | 0.00 | 0.00 | 89 | 1018.9 |
| 20260502055028 | 62 | 163 | 2.0 | 5.0 | 0.00 | 0.00 | 0.00 | 89 | 1018.8 |
| 20260502054524 | 62 | 128 | 0.0 | 2.0 | 0.00 | 0.00 | 0.00 | 89 | 1018.7 |
| 20260502054023 | 62 | 128 | 0.0 | 2.0 | 0.00 | 0.00 | 0.00 | 90 | 1018.5 |
| 20260502053522 | 62 | 128 | 0.0 | 3.0 | 0.00 | 0.00 | 0.00 | 90 | 1018.4 |
| 20260502053023 | 62 | 128 | 1.0 | 3.0 | 0.00 | 0.00 | 0.00 | 90 | 1018.3 |
| 20260502052523 | 62 | 128 | 1.0 | 3.0 | 0.00 | 0.00 | 0.00 | 90 | 1018.4 |
| 20260502052023 | 62 | 127 | 0.0 | 2.0 | 0.00 | 0.00 | 0.00 | 90 | 1018.3 |
| 20260502051524 | 62 | 127 | 0.0 | 3.0 | 0.00 | 0.00 | 0.00 | 90 | 1018.3 |
| 20260502051022 | 62 | 127 | 0.0 | 3.0 | 0.00 | 0.00 | 0.00 | 90 | 1018.4 |
| 20260502050522 | 62 | 127 | 1.0 | 3.0 | 0.00 | 0.00 | 0.00 | 90 | 1018.4 |
| 20260502050032 | 62 | 207 | 1.0 | 3.0 | 0.00 | 0.00 | 0.00 | 90 | 1018.4 |
| 20260502045523 | 62 | 207 | 1.0 | 3.0 | 0.00 | 0.00 | 0.00 | 90 | 1018.4 |
| 20260502045022 | 62 | 207 | 2.0 | 3.0 | 0.00 | 0.00 | 0.00 | 90 | 1018.2 |
| 20260502044522 | 62 | 186 | 1.0 | 3.0 | 0.00 | 0.00 | 0.00 | 90 | 1018.4 |
| 20260502044021 | 62 | 183 | 0.0 | 3.0 | 0.00 | 0.00 | 0.00 | 90 | 1018.4 |
| 20260502043520 | 62 | 182 | 0.0 | 2.0 | 0.00 | 0.00 | 0.00 | 90 | 1018.4 |
| 20260502043020 | 62 | 182 | 0.0 | 2.0 | 0.00 | 0.00 | 0.00 | 91 | 1018.4 |
| 20260502042520 | 62 | 182 | 0.0 | 2.0 | 0.00 | 0.00 | 0.00 | 91 | 1018.4 |
| 20260502042020 | 62 | 182 | 0.0 | 0.0 | 0.00 | 0.00 | 0.00 | 91 | 1018.4 |
| 20260502041526 | 62 | 182 | 0.0 | 0.0 | 0.00 | 0.00 | 0.00 | 90 | 1018.4 |
| 20260502041018 | 62 | 182 | 0.0 | 0.0 | 0.00 | 0.00 | 0.00 | 90 | 1018.4 |
| 20260502040518 | 62 | 182 | 0.0 | 0.0 | 0.00 | 0.00 | 0.00 | 90 | 1018.4 |
| 20260502040019 | 62 | 182 | 0.0 | 0.0 | 0.00 | 0.00 | 0.00 | 90 | 1018.5 |
| 20260502035517 | 62 | 182 | 0.0 | 0.0 | 0.00 | 0.00 | 0.00 | 90 | 1018.5 |
| 20260502035118 | 62 | 182 | 0.0 | 0.0 | 0.00 | 0.00 | 0.00 | 90 | 1018.5 |
| 20260502034520 | 62 | 182 | 0.0 | 2.0 | 0.00 | 0.00 | 0.00 | 90 | 1018.5 |
| 20260502034015 | 62 | 182 | 0.0 | 2.0 | 0.00 | 0.00 | 0.00 | 89 | 1018.7 |
| 20260502033514 | 62 | 182 | 0.0 | 0.0 | 0.00 | 0.00 | 0.00 | 89 | 1018.8 |
| 20260502033018 | 62 | 182 | 0.0 | 1.0 | 0.00 | 0.00 | 0.00 | 89 | 1018.9 |
| 20260502032513 | 62 | 182 | 0.0 | 3.0 | 0.00 | 0.00 | 0.00 | 89 | 1019.0 |
| 20260502032012 | 62 | 182 | 0.0 | 4.0 | 0.00 | 0.00 | 0.00 | 89 | 1019.0 |
| 20260502031512 | 62 | 173 | 0.0 | 4.0 | 0.00 | 0.00 | 0.00 | 89 | 1019.0 |
| 20260502031012 | 62 | 136 | 0.0 | 4.0 | 0.00 | 0.00 | 0.00 | 89 | 1019.1 |
| 20260502030512 | 62 | 148 | 1.0 | 7.0 | 0.00 | 0.00 | 0.00 | 89 | 1019.1 |
| 20260502030022 | 62 | 191 | 3.0 | 7.0 | 0.00 | 0.00 | 0.00 | 89 | 1019.1 |
| 20260502025510 | 62 | 131 | 1.0 | 4.0 | 0.00 | 0.00 | 0.00 | 89 | 1019.1 |
| 20260502025011 | 62 | 176 | 1.0 | 5.0 | 0.00 | 0.00 | 0.00 | 89 | 1019.2 |
| 20260502024510 | 62 | 167 | 2.0 | 7.0 | 0.00 | 0.00 | 0.00 | 89 | 1019.2 |
| 20260502024011 | 62 | 140 | 3.0 | 7.0 | 0.00 | 0.00 | 0.00 | 89 | 1019.2 |
| 20260502023511 | 62 | 182 | 1.0 | 4.0 | 0.00 | 0.00 | 0.00 | 89 | 1019.3 |
| 20260502023009 | 62 | 198 | 0.0 | 4.0 | 0.00 | 0.00 | 0.00 | 90 | 1019.2 |
| 20260502022509 | 62 | 188 | 0.0 | 4.0 | 0.00 | 0.00 | 0.00 | 90 | 1019.3 |
| 20260502022007 | 62 | 188 | 0.0 | 4.0 | 0.00 | 0.00 | 0.00 | 90 | 1019.4 |
| 20260502021507 | 62 | 209 | 2.0 | 7.0 | 0.00 | 0.00 | 0.00 | 90 | 1019.4 |
| 20260502021008 | 62 | 276 | 3.0 | 7.0 | 0.00 | 0.00 | 0.00 | 90 | 1019.5 |
| 20260502020506 | 62 | 180 | 3.0 | 4.0 | 0.00 | 0.00 | 0.00 | 90 | 1019.5 |
| 20260502020006 | 62 | 166 | 2.0 | 5.0 | 0.00 | 0.00 | 0.00 | 90 | 1019.5 |
| 20260502015506 | 62 | 164 | 2.0 | 7.0 | 0.00 | 0.00 | 0.00 | 90 | 1019.5 |
| 20260502015005 | 62 | 174 | 2.0 | 4.0 | 0.00 | 0.00 | 0.00 | 90 | 1019.5 |
| 20260502014503 | 62 | 212 | 1.0 | 3.0 | 0.00 | 0.00 | 0.00 | 90 | 1019.4 |
| 20260502014003 | 63 | 244 | 0.0 | 4.0 | 0.00 | 0.00 | 0.00 | 90 | 1019.6 |
| 20260502013502 | 63 | 244 | 0.0 | 4.0 | 0.00 | 0.00 | 0.00 | 91 | 1019.6 |
| 20260502013001 | 63 | 161 | 1.0 | 3.0 | 0.00 | 0.00 | 0.00 | 91 | 1019.7 |
| 20260502012600 | 63 | 160 | 1.0 | 2.0 | 0.00 | 0.00 | 0.00 | 90 | 1019.7 |
| 20260502012503 | 63 | 160 | 1.0 | 2.0 | 0.00 | 0.00 | 0.00 | 91 | 1019.8 |
| 20260502012101 | 63 | 160 | 0.0 | 1.0 | 0.00 | 0.00 | 0.00 | 90 | 1019.8 |
| 20260502011559 | 63 | 160 | 0.0 | 3.0 | 0.00 | 0.00 | 0.00 | 90 | 1019.9 |
| 20260502011057 | 63 | 160 | 0.0 | 3.0 | 0.00 | 0.00 | 0.00 | 90 | 1020.1 |
| 20260502010558 | 63 | 158 | 0.0 | 3.0 | 0.00 | 0.00 | 0.00 | 90 | 1020.1 |
| 20260502010106 | 63 | 158 | 0.0 | 3.0 | 0.00 | 0.00 | 0.00 | 90 | 1020.1 |
| 20260502005557 | 63 | 158 | 0.0 | 2.0 | 0.00 | 0.00 | 0.00 | 90 | 1020.2 |
| 20260502005057 | 63 | 158 | 0.0 | 2.0 | 0.00 | 0.00 | 0.00 | 90 | 1020.5 |
| 20260502004605 | 63 | 158 | 0.0 | 0.0 | 0.00 | 0.00 | 0.00 | 90 | 1020.7 |
| 20260502004055 | 63 | 157 | 0.0 | 0.0 | 0.00 | 0.00 | 0.00 | 90 | 1020.7 |
| 20260502003556 | 63 | 157 | 0.0 | 0.0 | 0.00 | 0.00 | 0.00 | 90 | 1020.9 |
| 20260502003056 | 63 | 157 | 0.0 | 0.0 | 0.00 | 0.00 | 0.00 | 90 | 1020.9 |
| 20260502002553 | 63 | 157 | 0.0 | 2.0 | 0.00 | 0.00 | 0.00 | 90 | 1021.1 |
| 20260502002054 | 63 | 157 | 0.0 | 5.0 | 0.00 | 0.00 | 0.00 | 90 | 1020.9 |
| 20260502001553 | 63 | 157 | 0.0 | 5.0 | 0.00 | 0.00 | 0.00 | 90 | 1020.8 |
| 20260502001053 | 63 | 159 | 0.0 | 3.0 | 0.00 | 0.00 | 0.00 | 90 | 1020.8 |
| 20260502000552 | 63 | 159 | 0.0 | 3.0 | 0.00 | 0.00 | 0.00 | 90 | 1020.7 |
| 20260502000054 | 63 | 159 | 1.0 | 4.0 | 0.00 | 0.00 | 0.00 | 89 | 1020.7 |
| 20260501235552 | 63 | 172 | 1.0 | 4.0 | 0.00 | 0.00 | 0.00 | 89 | 1020.9 |
| 20260501235051 | 63 | 244 | 0.0 | 3.0 | 0.00 | 0.00 | 0.00 | 89 | 1021.0 |
| 20260501234551 | 63 | 271 | 0.0 | 0.0 | 0.00 | 0.00 | 0.00 | 89 | 1020.9 |
| 20260501234051 | 63 | 271 | 0.0 | 1.0 | 0.00 | 0.00 | 0.00 | 89 | 1020.9 |
| 20260501233550 | 63 | 309 | 0.0 | 1.0 | 0.00 | 0.00 | 0.00 | 89 | 1021.0 |
| 20260501233051 | 63 | 309 | 0.0 | 1.0 | 0.00 | 0.00 | 0.00 | 89 | 1021.1 |
| 20260501232550 | 63 | 309 | 0.0 | 1.0 | 0.00 | 0.00 | 0.00 | 89 | 1021.2 |
| 20260501232048 | 63 | 309 | 0.0 | 2.0 | 0.00 | 0.00 | 0.00 | 89 | 1021.1 |
| 20260501231522 | 63 | 309 | 0.0 | 3.0 | 0.00 | 0.00 | 0.00 | 89 | 1021.0 |
| 20260501231049 | 63 | 309 | 0.0 | 3.0 | 0.00 | 0.00 | 0.00 | 89 | 1021.2 |
| 20260501230552 | 63 | 311 | 0.0 | 2.0 | 0.00 | 0.00 | 0.00 | 89 | 1020.9 |
| 20260501230048 | 63 | 311 | 0.0 | 2.0 | 0.00 | 0.00 | 0.00 | 89 | 1021.0 |
| 20260501225548 | 63 | 311 | 0.0 | 1.0 | 0.00 | 0.00 | 0.00 | 89 | 1021.2 |
| 20260501225047 | 63 | 311 | 0.0 | 1.0 | 0.00 | 0.00 | 0.00 | 89 | 1021.1 |
| 20260501224551 | 63 | 311 | 0.0 | 1.0 | 0.00 | 0.00 | 0.00 | 88 | 1021.0 |